This demonstration page uses our WeatherBlox Daily Observations layout. Learn more.

Left ArrowRight Arrow

40.92945, -100.16068

Hourly Observations for June 20, 2021

Temp ( °F °C ) Dew Point ( °F °C ) Humidity (%) Winds ( mph kmh ) Pressure ( in mb ) Visibility ( mi km ) Precip ( " mm )
12:15 am 00:15 Clear 70 21.1 62 16.5 75 75 NNE 3 6 29.57 1001 10 16 N/A
12:35 am 00:35 Clear 68 20.2 62 16.9 81 81 NW 3 6 29.60 1002 10 16 N/A
12:55 am 00:55 Clear 67 19.6 63 17 85 85 W 9 15 29.64 1004 10 16 N/A
1:15 am 01:15 Clear 67 19.4 63 17.1 87 87 WNW 8 13 29.64 1004 10 16 N/A
1:35 am 01:35 Clear 66 18.9 63 17.1 89 89 WSW 7 11 29.66 1004 10 16 N/A
1:55 am 01:55 Partly Cloudy 67 19.3 63 17 87 87 W 9 15 29.66 1004 10 16 N/A
2:15 am 02:15 Partly Cloudy 66 19.1 63 17 88 88 W 6 9 29.66 1004 10 16 N/A
2:35 am 02:35 Clear 65 18.5 62 16.8 90 90 WNW 8 13 29.66 1004 10 16 N/A
2:55 am 02:55 Clear 64 18 62 16.6 92 92 WNW 5 7 29.66 1004 10 16 N/A
3:15 am 03:15 Clear 64 17.5 61 16.3 93 93 N N/A 29.64 1004 10 16 N/A
3:35 am 03:35 Clear 62 16.7 60 15.8 94 94 SSE 5 7 29.63 1003 10 16 N/A
3:55 am 03:55 Clear 61 16.2 60 15.5 96 96 N N/A 29.62 1003 10 16 N/A
4:15 am 04:15 Clear 61 16 60 15.5 97 97 N N/A 29.62 1003 7 11 N/A
4:35 am 04:35 Clear 59 15 58 14.5 97 97 N N/A 29.62 1003 7 11 N/A
4:55 am 04:55 Clear 58 14.5 57 13.9 96 96 N N/A 29.63 1003 7 11 N/A
5:15 am 05:15 Clear with Mist and Fog 60 15.4 59 15 97 97 N N/A 29.63 1003 4 6 N/A
5:35 am 05:35 Mostly Cloudy with Mist and Fog 58 14.6 57 14.1 97 97 N N/A 29.64 1004 1 2 N/A
5:55 am 05:55 Mostly Cloudy with Fog 57 13.9 56 13.6 98 98 E 5 7 29.64 1004 1 1 N/A
6:15 am 06:15 Partly Cloudy with Mist and Fog 56 13.6 56 13.4 99 99 N N/A 29.64 1004 2 3 N/A
6:35 am 06:35 Mostly Cloudy with Mist and Fog 56 13.6 56 13.2 97 97 N N/A 29.64 1004 1 2 N/A
6:55 am 06:55 Sunny with Mist and Fog 58 14.4 57 14.1 98 98 N N/A 29.63 1003 3 5 N/A
7:15 am 07:15 Sunny with Mist and Fog 61 16 60 15.6 97 97 N N/A 29.63 1003 3 5 N/A
7:35 am 07:35 Sunny with Mist and Fog 63 17.1 62 16.6 97 97 W 5 7 29.62 1003 4 6 N/A
7:55 am 07:55 Sunny 65 18.5 63 17.2 92 92 NW 3 6 29.62 1003 7 11 N/A
8:15 am 08:15 Sunny 67 19.3 63 17.2 88 88 NW 3 6 29.61 1003 10 16 N/A
8:35 am 08:35 Sunny 68 20.1 64 17.5 85 85 NNW 5 7 29.61 1003 10 16 N/A
8:55 am 08:55 Sunny 69 20.7 64 17.8 84 84 N 8 13 29.61 1003 10 16 N/A
9:15 am 09:15 Sunny 70 21.1 63 17.4 80 80 N 10 17 29.60 1002 10 16 N/A
9:35 am 09:35 Sunny 72 22 62 16.9 73 73 N 3 6 29.59 1002 10 16 N/A
9:55 am 09:55 Sunny 73 22.8 62 16.7 69 69 N N/A 29.58 1002 10 16 N/A
10:15 am 10:15 Sunny 75 23.7 63 17.1 67 67 N 8 13 29.57 1001 10 16 N/A
10:35 am 10:35 Sunny 78 25.4 63 17.1 60 60 NNW 16 26 29.56 1001 10 16 N/A
10:55 am 10:55 Sunny 79 26 61 15.9 54 54 N 17 28 29.55 1001 10 16 N/A
11:15 am 11:15 Sunny 80 26.6 60 15.4 50 50 N 21 33 29.56 1001 10 16 N/A
11:35 am 11:35 Sunny 81 27.1 59 15.2 48 48 N 20 31 29.56 1001 10 16 N/A
11:55 am 11:55 Sunny 82 27.8 57 14 43 43 NNE 20 31 29.57 1001 10 16 N/A
12:15 pm 12:15 Sunny 83 28.2 55 12.7 38 38 NNE 21 33 29.58 1002 10 16 N/A
12:35 pm 12:35 Sunny 83 28.6 56 13.1 38 38 N 21 33 29.57 1001 10 16 N/A
12:55 pm 12:55 Sunny 84 29 55 12.9 37 37 NNE 18 30 29.58 1002 10 16 N/A
1:15 pm 13:15 Sunny 85 29.3 54 12.2 35 35 N 22 35 29.59 1002 10 16 N/A
1:35 pm 13:35 Sunny 85 29.5 53 11.9 34 34 N 21 33 29.58 1002 10 16 N/A
1:55 pm 13:55 Sunny 86 29.8 53 11.6 32 32 N 20 31 29.58 1002 10 16 N/A
2:15 pm 14:15 Sunny 86 29.8 53 11.6 32 32 N 20 31 29.59 1002 10 16 N/A
2:35 pm 14:35 Sunny 86 29.9 53 11.5 32 32 N 18 30 29.59 1002 10 16 N/A
2:55 pm 14:55 Sunny 85 29.6 52 11.2 32 32 N 21 33 29.60 1002 10 16 N/A
3:15 pm 15:15 Sunny 85 29.3 51 10.6 31 31 N 22 35 29.62 1003 10 16 N/A
3:35 pm 15:35 Sunny 84 29.1 52 11 33 33 N 16 26 29.63 1003 10 16 N/A
3:55 pm 15:55 Sunny 84 29.1 52 11.1 33 33 N 21 33 29.64 1004 10 16 N/A
4:15 pm 16:15 Sunny 84 28.8 51 10.6 32 32 N 23 37 29.65 1004 10 16 N/A
4:35 pm 16:35 Sunny 84 28.7 51 10.8 33 33 N 20 31 29.66 1004 10 16 N/A
4:55 pm 16:55 Sunny 83 28.3 53 11.4 35 35 N 18 30 29.66 1005 10 16 N/A
5:15 pm 17:15 Sunny 82 28 52 11.3 35 35 N 23 37 29.68 1005 10 16 N/A
5:35 pm 17:35 Sunny 81 27 51 10.3 35 35 N 23 37 29.69 1006 10 16 N/A
5:55 pm 17:55 Sunny 81 27 52 11 37 37 N 23 37 29.70 1006 10 16 N/A
6:15 pm 18:15 Sunny 79 26.2 52 11.1 39 39 N 18 30 29.71 1006 10 16 N/A
6:35 pm 18:35 Sunny 78 25.7 51 10.8 39 39 N 17 28 29.72 1007 10 16 N/A
6:55 pm 18:55 Sunny 78 25.3 51 10.5 39 39 N 21 33 29.74 1007 10 16 N/A
7:15 pm 19:15 Sunny 77 24.8 52 11 42 42 NNE 17 28 29.74 1007 10 16 N/A
7:35 pm 19:35 Sunny 76 24.4 52 11.3 44 44 NNE 22 35 29.77 1008 10 16 N/A
7:55 pm 19:55 Sunny 75 23.8 50 10.2 42 42 N 17 28 29.78 1008 10 16 N/A
8:15 pm 20:15 Sunny 74 23.3 50 10.1 43 43 N 16 26 29.78 1009 10 16 N/A
8:35 pm 20:35 Sunny 72 22.3 50 9.9 45 45 N 13 20 29.80 1009 10 16 N/A
8:55 pm 20:55 Sunny 71 21.6 51 10.3 49 49 N 8 13 29.82 1010 10 16 N/A
9:15 pm 21:15 Clear 70 21.1 51 10.5 51 51 N 8 13 29.83 1010 10 16 N/A
9:35 pm 21:35 Clear 69 20.7 51 10.7 53 53 N 8 13 29.87 1011 10 16 N/A
9:55 pm 21:55 Clear 68 20.1 51 10.8 55 55 N 9 15 29.85 1011 10 16 N/A
10:15 pm 22:15 Clear 68 20 51 10.5 54 54 N 9 15 29.85 1011 10 16 N/A
10:35 pm 22:35 Clear 67 19.6 51 10.5 56 56 N 8 13 29.89 1012 10 16 N/A
10:55 pm 22:55 Clear 67 19.4 51 10.5 57 57 N 10 17 29.90 1012 10 16 N/A
11:15 pm 23:15 Partly Cloudy 66 19.1 51 10.5 58 58 N 7 11 29.91 1013 10 16 N/A
11:35 pm 23:35 Partly Cloudy 66 19 50 10.2 57 57 N 9 15 29.92 1013 10 16 N/A
11:55 pm 23:55 Mostly Cloudy 66 19 50 10.1 56 56 N 12 19 29.92 1013 10 16 N/A

Powered by AerisWeather